Theta_e
302 301 301 303 303 302 305 307 324 333 333 332 332 331 330 329 328 327 325 322 323 322 321 318 313 309 307 304 299 294 292 290 290 291 291 291 292 291 291 292 291 292 290
297 298 299 298 300 301 302 304 310 327 332 333 333 334 332 331 330 328 326 323 322 320 320 317 312 309 304 299 297 295 291 290 290 289 290 288 292 291 291 290 291 289 288
296 296 296 297 297 298 299 301 304 316 330 333 332 324 326 321 320 321 324 323 321 320 320 316 313 309 306 302 299 296 297 295 292 293 296 289 289 287 287 288 288 287 286
293 294 295 295 296 297 298 299 301 306 321 331 330 329 328 325 326 327 326 323 321 320 318 316 311 308 306 302 300 303 306 304 298 295 294 292 291 287 284 285 285 285 285
292 293 294 295 295 296 296 296 298 301 306 323 329 328 326 326 319 316 321 310 316 318 315 312 309 306 306 305 303 304 302 302 299 297 297 291 289 286 285 283 283 284 285
296 297 298 299 299 298 296 296 298 299 301 309 324 326 325 318 313 311 310 308 312 313 313 308 307 306 305 305 304 302 301 298 297 296 292 292 289 286 285 284 282 281 282
296 297 298 299 299 300 300 300 298 297 299 302 312 324 325 319 316 315 315 309 308 305 307 307 305 305 305 304 302 301 299 296 295 294 293 292 289 287 286 284 280 281 281
296 297 297 298 299 300 299 299 300 300 299 298 303 310 317 317 317 315 316 313 312 312 307 307 306 304 303 302 301 300 296 294 291 290 290 288 288 287 287 285 283 279 279
295 296 298 299 298 298 299 299 299 299 300 300 301 304 310 312 313 308 308 307 305 304 306 306 304 303 302 299 297 296 293 292 290 289 288 288 287 287 287 286 284 281 277
296 297 297 297 298 298 298 298 298 299 300 299 302 305 306 307 305 302 302 302 301 302 302 302 302 300 299 295 293 291 290 289 289 288 287 287 286 286 286 285 283 282 280
296 296 296 295 296 294 293 293 294 296 298 299 301 301 301 300 300 299 298 299 299 300 299 299 298 298 296 292 290 289 289 288 287 287 287 286 286 285 284 284 282 281 279
296 296 294 295 291 289 290 290 292 294 297 298 299 297 299 300 299 300 301 300 299 299 298 297 295 292 291 290 289 288 288 287 286 286 286 285 286 284 284 283 283 280 280
296 294 293 291 288 287 288 289 290 292 296 297 295 297 299 299 299 299 299 299 298 297 295 293 291 290 289 289 288 288 287 287 287 287 287 286 285 284 283 282 281 280 281
294 291 290 292 288 288 288 289 289 290 292 294 295 295 297 297 297 297 297 296 294 293 292 290 289 288 288 288 288 288 287 287 286 286 285 284 283 282 282 282 281 280 279
292 289 289 292 288 287 288 288 288 289 290 292 294 293 294 294 293 291 291 291 290 288 288 288 288 288 288 289 287 287 286 285 284 284 284 284 285 287 286 284 282 281 279
290 289 289 290 288 286 287 288 288 288 290 290 290 290 289 288 288 288 287 287 287 288 289 289 289 290 291 293 291 287 285 284 283 282 282 282 283 284 287 287 288 287 281
289 288 287 288 285 288 289 288 289 290 289 289 289 289 289 288 288 288 287 287 287 288 288 289 289 289 290 292 290 288 284 283 282 281 281 281 283 283 281 284 287 287 288
288 287 287 288 288 287 288 290 290 289 289 289 288 289 288 288 288 288 287 287 287 287 287 287 287 286 290 291 288 286 282 281 281 280 280 279 280 280 283 282 281 281 282
286 287 288 288 286 287 288 289 289 289 289 288 288 288 288 287 287 286 286 286 286 285 285 285 285 285 287 290 288 284 281 281 280 281 280 280 280 284 288 283 280 279 279
287 287 287 288 287 288 289 288 288 288 287 287 287 287 287 286 286 286 285 285 285 285 285 285 285 286 284 288 287 285 281 279 280 281 280 284 284 287 288 282 278 275 276
287 289 288 287 288 289 288 287 286 285 287 287 287 286 286 286 286 286 285 285 284 284 282 281 280 280 281 283 288 287 281 281 280 280 280 280 286 286 286 285 277 278 280
288 289 288 288 289 289 288 286 285 286 287 287 286 286 286 287 286 285 284 283 281 279 278 278 277 277 277 285 286 286 286 285 280 280 280 280 285 284 283 281 283 284 282
288 289 287 288 288 288 287 285 286 287 287 286 286 286 287 287 286 283 281 280 279 278 277 278 276 276 278 278 285 285 285 285 281 281 282 283 282 281 278 281 282 281 275
288 288 289 288 287 288 288 287 287 287 286 286 285 286 284 280 279 278 278 277 277 277 277 276 275 275 276 277 278 280 278 282 281 281 276 279 279 279 278 277 276 275 275
289 289 289 287 286 287 287 288 288 288 286 286 286 281 278 277 276 277 276 276 276 277 276 275 276 275 275 278 283 282 281 279 280 278 274 273 273 273 273 274 274 274 274
288 287 288 287 287 287 287 287 288 288 286 282 278 277 277 277 278 277 278 286 285 285 284 283 280 279 282 284 284 284 283 282 282 274 272 271 271 271 272 272 272 273 273
Wind_Speed
12 7 9 9 7 7 8 8 8 12 9 9 10 9 10 9 8 8 11 11 10 10 10 6 6 7 8 9 8 4 5 2 3 4 2 2 2 2 2 3 2 3 3
6 8 8 6 8 7 9 9 9 11 11 9 11 8 10 9 9 8 9 9 9 11 11 10 9 9 6 7 8 6 4 3 4 4 2 1 1 1 1 1 3 4 3
8 6 7 8 6 8 8 8 9 10 12 14 8 3 3 2 3 5 8 10 11 11 11 11 9 9 9 9 10 7 6 4 1 3 3 2 4 1 0 1 1 3 2
5 4 6 7 5 8 6 7 8 9 8 11 10 15 12 12 10 11 11 8 13 13 11 11 11 10 7 8 8 7 5 5 4 0 1 2 3 4 2 1 1 2 4
7 7 6 4 4 5 4 4 3 7 8 8 11 12 12 9 3 3 8 6 9 12 11 10 10 9 7 8 10 10 9 5 5 4 3 2 1 2 3 3 2 2 2
5 5 4 5 7 7 8 6 2 3 6 7 8 13 14 8 5 4 6 5 6 7 9 10 9 9 9 10 9 7 8 6 6 5 3 3 4 4 3 2 2 2 2
7 8 10 9 8 8 7 6 7 6 5 4 6 10 12 11 12 11 8 8 6 5 11 12 11 10 10 9 9 8 6 5 3 5 4 2 1 3 2 3 1 2 2
8 8 8 7 7 7 7 7 8 7 6 5 6 6 7 6 7 8 7 8 8 8 10 9 9 9 10 8 7 5 4 5 5 7 4 3 4 2 1 3 3 1 2
7 7 7 7 8 9 8 7 7 7 5 5 6 7 6 7 9 7 5 5 5 5 9 11 12 11 11 11 10 6 6 6 5 7 6 3 3 3 2 4 3 4 3
6 6 6 6 6 7 8 9 8 8 9 6 6 5 6 6 5 5 6 7 8 10 11 10 9 11 10 10 9 8 7 8 4 5 7 4 3 4 2 3 2 1 3
5 5 6 6 6 7 8 10 10 11 11 6 5 5 3 1 4 4 5 6 8 9 10 11 11 11 11 10 10 9 8 8 5 5 6 6 5 4 3 1 1 2 2
5 5 5 6 7 7 9 10 11 11 9 7 4 4 4 5 5 5 6 8 9 9 10 11 11 11 12 12 12 11 8 8 4 2 6 4 4 4 2 3 4 3 3
4 2 4 5 6 7 8 9 10 11 7 3 4 4 5 7 8 8 7 8 10 10 11 11 12 12 12 12 10 12 9 9 6 4 5 4 2 2 3 2 3 3 2
2 3 5 4 6 6 6 8 8 8 6 6 6 6 5 7 9 9 9 10 11 13 13 12 13 13 13 12 11 10 9 7 5 6 4 3 1 2 3 3 4 3 3
4 5 5 6 6 7 8 8 7 7 6 6 8 8 8 9 11 13 12 11 12 12 13 15 14 14 12 9 10 9 8 7 4 4 4 1 4 5 1 1 3 3 3
1 4 5 5 3 4 5 6 8 8 6 8 10 10 11 11 13 13 13 14 14 14 15 14 14 14 9 19 15 8 7 5 4 2 4 0 1 5 8 9 12 8 3
3 3 4 3 3 4 2 6 8 7 7 9 11 11 12 14 13 11 13 13 15 14 14 12 12 13 10 17 15 10 4 4 3 3 2 1 3 5 4 9 12 11 14
3 3 3 3 4 4 5 7 6 8 8 8 9 9 10 14 12 12 13 10 12 13 11 10 10 9 8 14 9 9 4 2 3 4 2 2 4 5 7 6 6 5 5
4 4 3 4 5 5 5 7 8 7 7 7 7 7 9 13 11 11 10 9 10 11 9 8 9 6 6 11 9 7 4 3 3 2 3 4 4 9 13 5 2 5 5
4 5 5 6 6 5 7 8 9 8 8 7 7 8 8 11 12 10 10 9 10 9 7 7 6 6 3 7 5 6 3 2 2 3 4 7 8 12 14 6 3 4 7
5 6 5 6 5 6 8 9 7 8 6 8 9 9 9 10 10 10 8 8 8 7 6 7 4 4 5 4 8 7 3 2 1 2 3 3 12 14 16 16 3 6 9
6 7 6 6 6 7 7 7 8 6 7 8 9 8 8 8 7 9 5 6 7 7 6 6 5 4 5 7 6 6 7 7 1 3 3 4 14 15 15 11 14 14 10
6 6 6 7 6 7 7 8 6 7 8 7 8 8 7 7 5 4 5 5 5 5 4 4 3 3 2 3 7 7 8 9 4 3 7 12 13 13 9 12 13 10 4
7 7 7 8 7 7 8 6 8 8 8 7 7 6 6 5 5 4 4 4 4 4 3 3 3 3 3 2 2 2 3 6 4 5 4 8 10 10 9 7 6 4 4
6 6 7 7 7 7 7 7 7 7 8 6 6 5 5 5 5 4 4 4 2 3 3 3 3 3 2 2 4 4 3 2 5 4 3 3 3 4 4 5 5 4 5
6 6 7 8 8 7 7 6 6 6 7 6 4 4 4 4 4 4 4 10 9 10 10 7 3 1 1 5 6 8 9 9 11 3 3 4 4 5 5 5 6 5 7
Wind_Direction
253 228 213 219 208 217 230 219 193 210 182 182 187 200 208 202 203 207 199 193 192 183 191 190 170 166 172 176 169 129 143 117 157 113 36 18 52 148 179 165 171 164 141
256 250 259 212 224 219 206 221 215 212 196 196 202 199 207 214 208 202 206 192 186 179 186 184 186 182 160 154 168 153 132 111 182 137 117 201 299 20 39 169 188 178 158
269 266 253 251 228 236 219 212 220 217 204 203 192 107 114 82 127 195 209 202 175 184 188 186 181 183 178 178 180 159 139 137 207 257 144 126 223 155 231 201 219 172 147
312 300 280 277 269 252 259 213 211 222 218 203 195 201 206 209 209 206 209 188 180 188 192 192 179 180 179 175 169 146 150 146 154 222 247 78 148 174 224 308 219 158 174
39 41 27 7 359 351 313 292 229 237 239 210 194 200 210 213 201 185 197 163 173 180 185 184 178 167 171 167 166 164 169 164 144 169 210 166 136 103 149 199 275 302 222
20 40 36 33 28 23 26 15 349 250 242 232 218 207 210 192 175 172 176 183 173 177 183 173 177 167 162 173 171 170 174 170 146 160 188 228 167 169 163 116 167 211 290
18 17 18 14 10 14 11 6 9 6 348 255 239 222 221 199 199 195 193 174 183 179 189 172 171 172 164 160 155 159 162 157 153 143 152 181 90 112 102 111 146 179 292
9 15 8 3 358 355 357 0 353 341 347 328 275 249 231 206 210 200 201 197 202 195 165 169 160 152 146 146 146 142 132 133 129 122 110 122 106 87 120 120 139 50 302
1 1 353 357 351 350 347 341 332 310 302 291 293 271 236 204 204 194 172 160 138 140 161 163 154 153 152 147 142 145 140 131 125 124 118 130 84 76 107 121 145 169 200
349 343 344 347 347 341 332 332 324 305 298 269 250 258 247 218 188 158 166 152 139 143 145 145 150 143 145 135 130 123 120 118 114 116 123 119 104 117 114 98 138 183 162
323 336 343 349 351 339 340 327 326 318 303 287 256 237 232 155 125 127 122 125 123 137 140 141 143 142 134 124 113 109 110 105 111 124 122 111 129 120 126 124 100 226 170
328 346 356 4 357 339 339 330 324 314 291 276 237 160 127 119 106 108 122 127 128 127 130 129 125 125 117 111 109 103 96 109 112 92 96 108 113 120 162 155 196 218 210
357 17 32 17 348 341 337 333 327 324 322 348 94 93 116 122 116 117 119 120 120 117 116 115 115 115 111 108 109 113 113 114 106 95 83 90 118 189 191 211 231 226 233
52 25 32 15 12 346 338 337 344 350 13 56 72 81 92 105 106 107 112 112 114 115 110 108 105 103 97 97 98 97 98 95 92 83 92 109 256 211 198 227 252 254 263
38 26 35 19 8 347 356 341 354 4 2 67 86 87 94 97 96 97 95 94 97 98 103 101 98 93 90 89 87 92 100 110 112 102 85 140 229 228 239 133 276 254 242
54 57 56 41 9 8 357 348 11 13 27 63 73 79 82 82 85 89 96 95 92 93 92 89 94 89 94 102 100 96 100 99 98 186 122 297 341 11 355 332 303 290 273
117 86 67 69 54 61 48 44 31 35 48 72 72 79 85 82 79 86 90 94 98 98 91 92 97 98 96 108 113 116 123 126 176 98 72 359 0 355 333 296 301 302 299
118 98 96 92 60 63 74 75 66 54 45 55 78 92 96 94 90 87 87 94 99 96 94 93 88 90 100 104 117 118 97 147 128 97 56 331 322 308 286 265 261 269 281
102 95 87 98 91 82 69 77 64 59 62 56 59 73 96 97 98 94 92 90 90 82 82 85 89 102 129 153 138 132 144 73 54 47 341 306 292 301 304 302 281 299 293
113 111 89 84 79 66 74 66 72 69 71 76 75 74 82 92 94 93 89 84 85 91 93 105 93 129 144 147 163 122 100 92 34 347 311 319 323 316 315 341 344 312 287
111 98 91 89 83 75 83 82 79 80 82 84 79 74 74 86 94 96 93 93 93 103 112 103 120 114 94 57 87 102 99 76 359 304 293 284 325 328 331 320 342 283 291
114 109 96 86 84 86 97 95 85 87 91 90 92 84 85 85 81 93 124 120 119 114 101 105 83 58 40 59 54 44 30 1 316 306 312 317 329 329 322 327 311 317 340
118 116 114 102 89 97 107 109 100 100 94 89 88 92 86 89 106 110 92 91 89 97 99 95 90 76 43 37 30 23 0 350 4 338 335 338 334 331 332 321 331 342 322
137 128 118 111 110 104 106 110 116 114 108 105 99 101 106 96 75 72 82 94 91 94 102 111 99 64 38 14 348 330 337 342 348 348 350 341 339 336 328 334 328 313 309
139 137 127 122 121 123 120 125 125 128 118 117 116 101 85 92 86 72 95 90 78 121 115 99 114 105 39 297 357 353 346 348 328 17 360 332 321 324 327 326 318 315 312
136 131 128 127 128 127 125 127 137 146 141 122 119 124 108 95 90 99 72 81 87 89 97 118 119 47 350 358 351 352 347 353 349 23 327 321 323 320 320 319 315 311 310